Location: Pedholt
(56.0260°N, 10.2097°E)
Time: 02:42:32
(UTC+00:00)

SR - Pass Details

Date: 01 August 2021
Orbit: 581 x 873 km, 66.7° (Epoch: 27 September)

Event Time Altitude Azimuth Distance (km) Brightness Sun altitude
Rises 07:10:54 0° 240° (WSW) 3,409 ? 29.4°
Reaches altitude 10° 07:13:29 10° 244° (WSW) 2,447 ? 29.8°
Maximum altitude 07:19:02 56° 323° (NW) 946 ? 30.5°
Drops below altitude 10° 07:24:13 10° 42° (NE) 2,281 ? 31.2°
Sets 07:26:34 0° 47° (NE) 3,159 ? 31.5°
